Weather History for TIST - October, 2012

Change the Weather History Date:

Saturday, October 27, 2012

  Actual Average Record
Temperature  
Mean Temperature 84 °F 82 °F  
Max Temperature 86 °F 88 °F 94 °F (1992)
Min Temperature 82 °F 76 °F 66 °F (2007)
Degree Days  
Heating Degree Days 0 0  
Month to date heating degree days 0 0  
Since 1 July heating degree days 0 0  
Cooling Degree Days 19 17  
Month to date cooling degree days 497 481  
Year to date cooling degree days 4826 5040  
Growing Degree Days 34 (Base 50)    
Moisture  
Dew Point 79 °F    
Average Humidity 83    
Maximum Humidity 88    
Minimum Humidity 77    
Precipitation  
Precipitation T in 0.18 in 1.45 in (1978)
Month to date precipitation 4.54 4.67  
Year to date precipitation 27.69 30.40  
Sea Level Pressure  
Sea Level Pressure 29.81 in    
Wind  
Wind Speed 13 mph (SSW)    
Max Wind Speed 16 mph    
Max Gust Speed 22 mph    
Visibility 10 miles    
Events Rain    
T = Trace of Precipitation, MM = Missing Value Source: NWS Daily Summary

Daily Weather History Graph

Daily Weather History Graph

Search for Another Location

Airport or City:

Trip Planner

Search our weather history database for the weather conditions in past years. The results will help you decide how hot, cold, wet, or windy it might be!

Date:

Astronomy

Oct. 27, 2012 Rise Set
Actual Time 6:17 AM AST 5:49 PM AST
Civil Twilight 5:55 AM AST 6:11 PM AST
Nautical Twilight 5:29 AM AST 6:37 PM AST
Astronomical Twilight 5:03 AM AST 7:03 PM AST
Moon 4:24 PM AST (10/27) 4:21 AM AST (10/27)
Length of Visible Light 12h 16m
Length of Day
11h 31m
Waxing Gibbous, 96% of the Moon is Illuminated
Oct 27
Waxing Gibbous
Oct 29
Full
Nov 6
Last Quarter
Nov 13
New
Nov 20
First Quarter

Hourly Weather History & Observations

Time (AST) Temp. Heat Index Dew Point Humidity Pressure Visibility Wind Dir Wind Speed Gust Speed Precip Events Conditions
12:34 AM 82.4 °F 92.4 °F 78.8 °F 89% 29.85 in 10.0 mi South 11.5 mph - N/A   Mostly Cloudy
12:53 AM 82.9 °F 93.8 °F 79.0 °F 88% 29.85 in 10.0 mi South 11.5 mph - N/A   Overcast
1:02 AM 82.4 °F 92.4 °F 78.8 °F 89% 29.84 in 10.0 mi South 12.7 mph - N/A   Overcast
1:53 AM 82.9 °F 92.8 °F 78.1 °F 85% 29.84 in 10.0 mi South 11.5 mph - N/A   Partly Cloudy
2:53 AM 82.9 °F 93.8 °F 79.0 °F 88% 29.82 in 10.0 mi South 11.5 mph - N/A   Partly Cloudy
3:33 AM 82.4 °F 92.4 °F 78.8 °F 89% 29.80 in 10.0 mi South 12.7 mph - 0.00 in Rain Light Rain
3:41 AM 82.4 °F 92.4 °F 78.8 °F 89% 29.79 in 10.0 mi South 13.8 mph - 0.00 in   Mostly Cloudy
3:53 AM 82.0 °F 91.6 °F 79.0 °F 90% 29.79 in 10.0 mi South 15.0 mph - 0.00 in   Scattered Clouds
4:53 AM 82.9 °F 93.8 °F 79.0 °F 88% 29.78 in 10.0 mi South 11.5 mph - N/A   Mostly Cloudy
5:25 AM 82.4 °F 92.4 °F 78.8 °F 89% 29.78 in 10.0 mi South 12.7 mph - N/A   Scattered Clouds
5:53 AM 82.0 °F 91.6 °F 79.0 °F 90% 29.79 in 10.0 mi South 12.7 mph - N/A   Clear
6:53 AM 82.0 °F 91.6 °F 79.0 °F 90% 29.81 in 10.0 mi South 13.8 mph - N/A   Partly Cloudy
7:36 AM 82.4 °F 92.4 °F 78.8 °F 89% 29.82 in 10.0 mi South 12.7 mph - N/A   Mostly Cloudy
7:53 AM 82.9 °F 93.8 °F 79.0 °F 88% 29.83 in 10.0 mi SSW 13.8 mph - N/A   Mostly Cloudy
8:53 AM 84.0 °F 96.0 °F 79.0 °F 85% 29.85 in 10.0 mi South 13.8 mph - N/A   Mostly Cloudy
9:01 AM 84.2 °F 96.1 °F 78.8 °F 84% 29.84 in 10.0 mi SSW 10.4 mph - N/A   Mostly Cloudy
9:53 AM 84.9 °F 97.5 °F 79.0 °F 82% 29.85 in 10.0 mi South 13.8 mph - N/A   Partly Cloudy
10:09 AM 84.2 °F 98.3 °F 80.6 °F 89% 29.85 in 10.0 mi SSW 12.7 mph - N/A   Mostly Cloudy
10:36 AM 84.2 °F 98.3 °F 80.6 °F 89% 29.85 in 10.0 mi SSW 12.7 mph - N/A   Scattered Clouds
10:53 AM 84.9 °F 97.5 °F 79.0 °F 82% 29.85 in 10.0 mi SSW 13.8 mph - N/A   Scattered Clouds
11:53 AM 84.9 °F 97.5 °F 79.0 °F 82% 29.83 in 10.0 mi South 12.7 mph - N/A   Scattered Clouds
12:19 PM 84.2 °F 96.1 °F 78.8 °F 84% 29.81 in 10.0 mi SSW 15.0 mph - N/A   Mostly Cloudy
12:26 PM 84.2 °F 96.1 °F 78.8 °F 84% 29.81 in 10.0 mi SSW 12.7 mph - N/A   Scattered Clouds
12:53 PM 86.0 °F 99.3 °F 79.0 °F 79% 29.81 in 10.0 mi South 12.7 mph - N/A   Scattered Clouds
1:24 PM 84.2 °F 96.1 °F 78.8 °F 84% 29.79 in 10.0 mi SSW 12.7 mph - N/A   Mostly Cloudy
1:53 PM 84.9 °F 97.5 °F 79.0 °F 82% 29.79 in 10.0 mi SSW 12.7 mph - N/A   Overcast
2:38 PM 84.2 °F 96.1 °F 78.8 °F 84% 29.78 in 10.0 mi SSW 11.5 mph - N/A   Scattered Clouds
2:53 PM 84.9 °F 97.5 °F 79.0 °F 82% 29.78 in 10.0 mi SSW 13.8 mph - N/A   Scattered Clouds
3:10 PM 84.2 °F 96.1 °F 78.8 °F 84% 29.78 in 10.0 mi SSW 15.0 mph - N/A   Mostly Cloudy
3:20 PM 84.2 °F 96.1 °F 78.8 °F 84% 29.78 in 10.0 mi SSW 10.4 mph - N/A   Scattered Clouds
3:43 PM 84.2 °F 96.1 °F 78.8 °F 84% 29.78 in 10.0 mi SSW 15.0 mph - 0.00 in Rain Light Rain
3:53 PM 84.9 °F 97.5 °F 79.0 °F 82% 29.79 in 10.0 mi SW 13.8 mph - 0.00 in   Mostly Cloudy
4:09 PM 84.2 °F 96.1 °F 78.8 °F 84% 29.79 in 10.0 mi SW 12.7 mph - N/A   Scattered Clouds
4:53 PM 84.0 °F 94.8 °F 78.1 °F 82% 29.79 in 10.0 mi SW 12.7 mph - N/A   Partly Cloudy
5:53 PM 84.0 °F 96.0 °F 79.0 °F 85% 29.80 in 10.0 mi SW 12.7 mph - N/A   Partly Cloudy
6:53 PM 82.9 °F 92.8 °F 78.1 °F 85% 29.81 in 10.0 mi SW 11.5 mph - N/A   Clear
7:53 PM 82.9 °F 93.8 °F 79.0 °F 88% 29.82 in 10.0 mi SSW 11.5 mph - N/A   Partly Cloudy
8:53 PM 82.9 °F 92.8 °F 78.1 °F 85% 29.83 in 10.0 mi SSW 11.5 mph - N/A   Partly Cloudy
9:53 PM 82.9 °F 92.8 °F 78.1 °F 85% 29.84 in 10.0 mi SSW 13.8 mph - N/A   Partly Cloudy
10:53 PM 82.9 °F 92.8 °F 78.1 °F 85% 29.84 in 10.0 mi SW 9.2 mph - N/A   Clear
11:53 PM 82.9 °F 92.8 °F 78.1 °F 85% 29.84 in 10.0 mi SSW 11.5 mph - N/A   Partly Cloudy